Regional Weather Roundup
Issued by NWS Northern Indiana

Home | Current Version | Previous Version | Text Only | Print | Product List | Glossary Off
Versions: 1 2 3 4 5 6 7 8 9 10 11 12 13 14 15 16 17 18 19 20 21 22 23 24 25 26 27 28 29 30 31 32 33 34 35 36 37 38 39 40 41 42 43 44 45 46 47 48 49 50

000
ASUS43 KIWX 280310
RWRIWX

KIWX WEATHER ROUNDUP
NATIONAL WEATHER SERVICE NORTHERN INDIANA
1100 PM EDT FRI MAY 27 2016

NOTE: "FAIR" INDICATES FEW OR NO CLOUDS BELOW 12,000 FEET WITH NO
SIGNIFICANT WEATHER AND/OR OBSTRUCTIONS TO VISIBILITY.

* THESE STATIONS ARE NOT UNDER NWS QUALITY CONTROL. THEY ALSO MAY NOT
  REPORT WEATHER SUCH AS PRECIPITATION OR FOG.

INZ001>027-280400-
NORTHERN INDIANA

CITY           SKY/WX    TMP DP  RH WIND       PRES   REMARKS
GARY*          MOCLDY    72  72 100 S12       29.90R
VALPARAISO     CLOUDY    70  65  84 S14G23    29.93R
MICHIGAN CITY* CLOUDY    70  70 100 S7        29.93R
LAPORTE*       CLOUDY    72  72 100 SW13      29.94R
KNOX*          CLOUDY    72  61  68 SW9       29.94R
SOUTH BEND     CLOUDY    71  66  84 SW8       29.94R
GOSHEN         CLOUDY    75  57  53 S7        29.94R
MONTICELLO*    CLOUDY    74  62  66 S5        29.93R
LOGANSPORT*    CLOUDY    77  57  50 S8        29.95R
ROCHESTER*     PTCLDY    77  59  53 S5        29.95R
WARSAW*        CLOUDY    77  57  50 CALM      29.95R
ANGOLA*          N/A     75  68  78 S5        29.97R
FORT WAYNE     MOCLDY    75  60  59 S10       29.97R
HUNTINGTON*    CLEAR    N/A N/A N/A S3        29.97R
PERU/GRISSOM   CLOUDY    75  59  57 S6        29.94R
MARION*        CLEAR     73  58  59 S6        29.98R

$$
INZ028>050-280400-
CENTRAL INDIANA

CITY           SKY/WX    TMP DP  RH WIND       PRES   REMARKS
LAFAYETTE      CLOUDY    72  65  78 W5        29.94R
KOKOMO*        CLOUDY    75  59  57 S8        29.96R
MUNCIE*        CLEAR     78  62  57 S6        29.99R
INDIANAPOLIS   CLOUDY    75  61  61 SE10      29.96R

$$
MIZ043>046-050>051-056>058-064>065-071>073-077>080-280400-
SOUTHWEST LOWER MICHIGAN

CITY           SKY/WX    TMP DP  RH WIND       PRES   REMARKS
BATTLE CREEK   PTCLDY    75  63  66 S7        29.95R
BENTON HARBOR  CLOUDY    70  67  90 CALM      29.92R
COLDWATER*     CLEAR     75  59  56 S7        29.96R
HILLSDALE*     CLEAR     75  56  51 S5        29.98R
HOLLAND        CLOUDY    69  66  90 SE3       29.92R
GRAND RAPIDS   CLOUDY    75  66  73 N5        29.92S
KALAMAZOO      CLOUDY    76  59  55 SE3       29.94R
STURGIS*       MOCLDY    75  59  57 S8        29.95R
THREE RIVERS*  FAIR      76  60  57 S7        29.94R

$$
OHZ001>008-015>018-024>025-280400-
NORTHWEST OHIO

CITY           SKY/WX    TMP DP  RH WIND       PRES   REMARKS
WAUSEON*         N/A     77  77 100 SW8       29.97R
DEFIANCE       CLEAR     76  57  51 S6        29.97R
FINDLAY        CLOUDY    75  60  59 S8        29.98R
TOLEDO EXPRESS CLEAR     70  64  81 CALM      29.97R
TOLEDO METCALF PTCLDY    74  62  66 SE5       29.98R
LIMA           PTCLDY    76  60  57 S6        30.00R

$$
AND FOR LAKE MICHIGAN COASTAL AND OPEN LAKE BUOY OBSERVATIONS

STATION/POSITION TEMP    WIND        PRES    VSBY  WAVE
                 AIR SEA DIR/SP/G                  HT/PER
                 (F)     (DEG/KT/KT) (MB)    (MI)  (FT/S)
CALUMET HARBOR           180/  5/ 12 1011.2R
MICHIGAN CITY     72     180/ 11/ 12   N/A
BURNS HARBOR      71     180/ 14/ 22 1012.9R
SAINT JOSEPH      68     180/  3/  6 1014.2R
SOUTH LAKE BUOY   58 50  160/ 16/ 17 1011.6R         1/ 3
4 MI NW BRIDGMAN  64 62  190/  4/  4   N/A           1/ 3
MICHIGAN CITY     68 59  200/ 16/ 23   N/A           1

$$
&&



USA.gov is the U.S. government's official web portal to all federal, state and local government web resources and services.